Regional Weather Roundup
Issued by NWS

Home | Current Version | Previous Version | Graphics & Text | Print | Product List | Glossary On
Versions: 1 2 3 4 5 6 7 8 9 10 11 12 13 14 15 16 17 18 19 20 21 22 23 24 25 26 27 28 29 30 31 32 33 34 35 36 37 38 39 40 41 42 43 44 45 46 47 48 49 50
000
ASUS43 KLOT 262106
RWRIL

ILLINOIS REGIONAL WEATHER ROUNDUP
NATIONAL WEATHER SERVICE CHICAGO/ROMEOVILLE IL
300 PM CST THU FEB 26 2015

NOTE: "FAIR" INDICATES FEW OR NO CLOUDS BELOW 12,000 FEET WITH NO
SIGNIFICANT WEATHER AND/OR OBSTRUCTIONS TO VISIBILITY.

* THESE STATIONS ARE NOT UNDER NWS QUALITY CONTROL. THEY ALSO MAY NOT
  REPORT WEATHER SUCH AS PRECIPITATION OR FOG.

ILZ001-002-007-009-015-016-024-262200-
NORTHWEST ILLINOIS

CITY           SKY/WX    TMP DP  RH WIND       PRES   REMARKS
MOLINE         CLOUDY    14   1  56 N12G21    30.35R WCI   0
STERLING*      CLOUDY    16   5  62 N13       30.34R WCI   2
SAVANNA*       MOSUNNY   15  -2  46 N10       30.34R WCI   3
$$

ILZ003-004-008-010-011-017-018-262200-
NORTH CENTRAL ILLINOIS

CITY           SKY/WX    TMP DP  RH WIND       PRES   REMARKS
ROCKFORD       MOSUNNY   13  -2  51 N15       30.33R WCI  -3
FREEPORT*      SUNNY     11  -4  52 N8        30.34R WCI  -1
ROCHELLE*      PTSUNNY   12   1  59 N14       30.31R WCI  -3
DE KALB*       PTSUNNY   10   0  64 N13       30.29R WCI  -5
PERU*          CLOUDY    16   4  61 N14       30.32R WCI   1
$$

ILZ005-006-012>014-019>023-262200-
NORTHEAST ILLINOIS

CITY           SKY/WX    TMP DP  RH WIND       PRES   REMARKS
CHICAGO-OHARE  MOSUNNY   18   1  47 N16       30.26R WCI   3
CHICAGO-MIDWAY FLURRIES  20   5  52 N13       30.27R WCI   7
AURORA         MOSUNNY   15   3  59 NW21      30.28R WCI  -2
LANSING*       LGT SNOW  17  12  79 N10G16    30.26R WCI   5
JOLIET*        PTSUNNY   19   4  53 N9        30.27R WCI   7
WAUKEGAN       SUNNY     15  -3  44 NW10      30.27R WCI   2
DUPAGE AIRPORT PTSUNNY   17   2  51 NW17      30.26R WCI   1
KANKAKEE*      PTSUNNY   19   9  66 N9        30.27R WCI   8
WHEELING       SUNNY     18  -1  43 NW10      30.28R WCI   6
MORRIS*        PTSUNNY   18   8  65 N8        30.28R WCI   7
ROMEOVILLE*    MOSUNNY   19   2  48 N13       30.26R WCI   6
NORTHERLY ISL    N/A     17   5  59 N12         N/A  WCI   4
$$

LMZ740>746-262200-
SOUTHERN LAKE MICHIGAN

STATION/POSITION SKY/WX   TEMP    WIND        PRES    VSBY  WAVE
                          AIR SEA DIR/SP/G                  HT/PER
                          (F)     (DEG/KT/KT) (MB)    (MI)  (FT/S)
WAUKEGAN HARBOR            15     340/ 14/ 19   N/A
HARRISON CRIB              17     340/ 20/ 25   N/A
BURNHAM HARBOR             17     330/ 14/ 17   N/A
CALUMET HARBOR             15     330/ 13/ 19 1023.5R
MICHIGAN CITY              15     360/ 15/ 18   N/A
$$

ILZ025>027-034>036-040-047-049-050-058-095>099-262200-
WEST-CENTRAL ILLINOIS

CITY           SKY/WX    TMP DP  RH WIND       PRES   REMARKS
QUINCY         SUNNY     14   1  56 N22       30.35R WCI  -4
GALESBURG*     SUNNY     13   5  70 NW13      30.34R WCI  -1
MACOMB*        CLOUDY    13   5  69 NW21      30.37R WCI  -5
JACKSONVILLE*  CLOUDY    20  10  66 NW15      30.32R WCI   6
PITTSFIELD*    MOSUNNY   19   8  62 NW15      30.34R WCI   5
$$

ILZ028>032-037-038-041>044-048-051>054-059>061-262200-
CENTRAL ILLINOIS

CITY           SKY/WX    TMP DP  RH WIND       PRES   REMARKS
PONTIAC        SUNNY     19  12  74 N14       30.29R WCI   6
BLOOMINGTON    FLURRIES  18  12  77 N17       30.27R WCI   3
DECATUR        CLOUDY    20  13  74 N15       30.26R WCI   6
PEORIA         PTSUNNY   18   7  62 N12G18    30.32R WCI   5
LACON*         MOSUNNY   15   4  63 NW8       30.32R WCI   3
LINCOLN*       LGT SNOW  22  14  72 N9        30.31R WCI  11
SPRINGFIELD    FLURRIES  20  10  65 NW15      30.30R WCI   6
TAYLORVILLE    LGT SNOW  19  14  79 NW16      30.28R WCI   5
$$

ILZ033-039-045-046-055>057-062-063-262200-
EAST-CENTRAL ILLINOIS

CITY           SKY/WX    TMP DP  RH WIND       PRES   REMARKS
CHAMPAIGN      PTSUNNY   20  11  68 N16       30.23R WCI   6
DANVILLE*      CLOUDY    20  13  75 N16       30.20R WCI   6
RANTOUL*       PTSUNNY   21  13  70 N17       30.24R WCI   7
MATTOON        PTSUNNY   23  14  68 N17       30.23R WCI   9
PARIS*         CLOUDY    23  13  64 N8        30.23R WCI  14
$$

ILZ079-100>102-262200-
SOUTHWEST ILLINOIS

CITY           SKY/WX    TMP DP  RH WIND       PRES   REMARKS
ALTON          FLURRIES  21  12  68 NW10G18   30.31R WCI  10
BELLEVILLE     FLURRIES  23  15  71 N16       30.29R WCI  10
CAHOKIA*       CLOUDY    24  15  68 N15       30.31R WCI  11
SPARTA*        CLOUDY    24  16  72 NW13      30.28R WCI  12
$$

ILZ064>066-069>071-074>076-080>082-084>086-088>090-092>094-262200-
SOUTH-CENTRAL ILLINOIS

CITY           SKY/WX    TMP DP  RH WIND       PRES   REMARKS
CARBONDALE     FLURRIES  25  16  68 NW16G22   30.27R WCI  12
CAIRO*           N/A    N/A N/A N/A MISG        N/A
EFFINGHAM*     CLOUDY    24  12  61 NW12      30.26R WCI  13
MARION         CLOUDY    27  19  74 NW9G18    30.26R WCI  17
MT. VERNON     CLOUDY    27  16  63 N6        30.24R WCI  20
CENTRALIA*     CLOUDY    26  16  67 N16G23    30.25R WCI  13
SALEM*         PTSUNNY   26  16  65 N15       30.25R WCI  14
METROPOLIS*    LGT SNOW  29  24  81 NW10      30.21R WCI  19
$$

ILZ067-068-072-073-078-083-087-091-262200-
SOUTHEAST ILLINOIS

CITY           SKY/WX    TMP DP  RH WIND       PRES   REMARKS
LAWRENCEVILLE  CLOUDY    26  15  63 N17       30.21R WCI  13
FLORA*         CLOUDY    25  16  67 N13       30.24R WCI  14
FAIRFIELD*     CLOUDY    27  17  68 N13G18    30.22R WCI  16
HARRISBURG*    FLURRIES  28  20  72 N9        30.24R WCI  19
ROBINSON*      CLOUDY    25  16  67 N15       30.22R WCI  13
CARMI*         CLOUDY    29  23  78 NW15      30.21R WCI  18
$$

ABBREVIATIONS USED IN REMARKS
   TC - TEMPERATURE IN CELSIUS
  WCI - WIND CHILL INDEX
   HX - HEAT INDEX
  VSB - VISIBILITY
$$



USA.gov is the U.S. government's official web portal to all federal, state and local government web resources and services.